LATIBKPR

Guest
Details From LATI - Tirana Rinas
To BKPR - Pristina Intl
Flight Number -
Tags generated
Created
Modified
Stats Distance 91 nm / 169 km
Max Altitude 0 ft / 0 m
Waypoints 3
Social Downloads 2
Likes 0
Share VATSIM

Download

Looking for another format? Having issues loading an existing format? Contact us
Advertisement - Login to hide

Notes

Basic altitude profile: - Ascent Rate: 2500ft/min - Ascent Speed: 250kts - Cruise Altitude: 35000ft - Cruise Speed: 420kts - Descent Rate: 1500ft/min - Descent Speed: 250kts Options: - Use NATs: yes - Use PACOTS: yes - Use low airways: yes - Use high airways: yes

Route

LATI TRN BKPR

ID Type Via Altitude Latitude Longitude Leg Dist Tot Dist Heading (true) Name
O LATI APT - 0 ft / 0 m 41.41473˚ 19.72057˚ - 0 nm - Tirana Rinas
TRN VOR - 0 ft / 0 m 41.41612˚ 19.71819˚ 0 nm 0 nm 308° / 308° TIRANA VOR-DME
O BKPR APT - 0 ft / 0 m 42.57453˚ 21.03568˚ 91 nm 91 nm 40° / 41° Pristina Intl

Altitude Profile

Advertisement - Login to hide

LATI

Details ICAO LATI (TIA)
Name Tirana Rinas
Region Albania
Timezone Europe/Tirane (UTC+2.0)
Stats Elevation 126 ft / 38 m (AMSL)
Location 41.414732° 19.720569°
Runways 1
Magnetic Variation 4.277° E

METAR

LATI 221820Z 02003KT CAVOK 23/18 Q1015 NOSIG

Decode

TAF

TAF LATI 221700Z 2218/2318 VRB04KT 9999 FEW050 SCT120 TEMPO 2310/2318 27008KT -TSRA FEW030CB SCT050

Decode

Departure Runways

ID Width Length Bearing (true) Bearing (mag) Surface Threshold Offset Overrun Length
18 148 ft / 45 m 8,984 ft / 2,738 m 174.31° 170.03° Asphalt 500 ft / 152 m 0 ft / 0 m
36 148 ft / 45 m 8,984 ft / 2,738 m 354.31° 350.03° Asphalt 500 ft / 152 m 0 ft / 0 m

BKPR

Details ICAO BKPR
Name Pristina Intl
Region Kosovo
Timezone Europe/Belgrade (UTC+2.0)
Stats Elevation 1,789 ft / 545 m (AMSL)
Location 42.574531° 21.035685°
Runways 1
Magnetic Variation 4.597° E

METAR

BKPR 221830Z VRB03KT 9999 FEW035CB SCT080 BKN180 18/12 Q1018 NOSIG

Decode

TAF

TAF BKPR 221730Z 2218/2318 VRB05KT 9999 SCT080 TEMPO 2303/2307 0800 FG BKN008 TEMPO 2309/2318 VRB15KT 5000 -TSRA FEW030CB

Decode

Destination Runways

ID Width Length Bearing (true) Bearing (mag) Surface Threshold Offset Overrun Length
17 148 ft / 45 m 8,175 ft / 2,492 m 175.71° 171.11° Asphalt 0 ft / 0 m 98 ft / 30 m
35 148 ft / 45 m 8,175 ft / 2,492 m 355.71° 351.11° Asphalt 0 ft / 0 m 98 ft / 30 m

Approach Navaids

Runway Type Ident Frequency Range Bearing (true) Bearing (mag) Slope Elevation
17 Localiser PRS 110.10 MHz 18 nm / 33 km 175.69° 171.09° - 1,794 ft / 547 m (AMSL)
17 Glidescope PRS 110.10 MHz 10 nm / 19 km 175.71° 171.11° 3.00° 1,794 ft / 547 m (AMSL)
17 DME PRS 110.10 MHz 18 nm / 33 km - - - 1,794 ft / 547 m (AMSL)

Popular Alternatives